Regional Weather Roundup
Issued by NWS

Home | Current Version | Previous Version | Graphics & Text | Print | Product List | Glossary On
Versions: 1 2 3 4 5 6 7 8 9 10 11 12 13 14 15 16 17 18 19 20 21 22 23 24 25 26 27
000
ASUS45 KBOU 220607
RWRCO

WEATHER ROUNDUP FOR COLORADO
NATIONAL WEATHER SERVICE DENVER/BOULDER CO
1200 AM MDT FRI SEP 22 2017

NOTE: "FAIR" INDICATES FEW OR NO CLOUDS BELOW 12000 FEET WITH NO
SIGNIFICANT WEATHER AND/OR OBSTRUCTIONS TO VISIBILITY.

COZ001>005-013-030-031-220700-
...NORTHWEST COLORADO...

CITY           SKY/WX    TMP DP  RH WIND       PRES   REMARKS
CRAIG          FAIR      60  21  22 S7        29.77R
HAYDEN         FAIR      52  24  33 CALM      29.82R
MEEKER         FAIR      60  20  21 NE5       29.78R
RABBIT EARS PA FAIR      50  19  29 SW12G29   30.06F
STEAMBOAT SPGS FAIR      49  29  46 CALM      29.83R
WALDEN         FAIR      41  23  48 SE10      29.92F
$$

COZ006>008-011-220700-
...WEST CENTRAL VALLEYS...

CITY           SKY/WX    TMP DP  RH WIND       PRES   REMARKS
GRAND JUNCTION FAIR      75  22  13 SE15      29.72R
MONTROSE       FAIR      70  19  14 S8G21     29.83F
EAGLE          FAIR      50  26  39 E7        29.85S
RIFLE          FAIR      73  16  11 W13G18    29.76R
DELTA          FAIR      72  18  13 S3        29.79S
NUCLA          FAIR      68  19  15 SW23G37   29.86S
$$

COZ017>023-064>068-220700-
...SOUTHWEST COLORADO...

CITY           SKY/WX    TMP DP  RH WIND       PRES   REMARKS
DURANGO        FAIR      56  29  35 CALM      29.98R
CORTEZ         FAIR      65  30  27 S13       29.90R
PAGOSA SPRINGS FAIR      49  24  37 CALM      30.05S
TELLURIDE      FAIR      57  21  24 S7        30.07S
WOLF CREEK PAS CLOUDY    41  23  48 S14G24    30.32S
$$

COZ009-010-012-014-032>034-037-058>063-220700-
...CENTRAL COLORADO...

CITY           SKY/WX    TMP DP  RH WIND       PRES   REMARKS
ASPEN          FAIR      54  22  28 W5        29.91R
BUENA VISTA    FAIR      61  19  19 SE9G21    29.95S
COPPER MTN     FAIR      48  10  21 S23G35    30.19R
BERTHOUD PASS  FAIR      39  32  75 SW9G20    30.21F
COTTONWOOD PAS FAIR      61  18  18 SW13G21   30.08F
GUNNISON       FAIR      51  23  33 N10       29.98S
KREMMLING      FAIR      50  25  37 E5        29.90R
LEADVILLE      FAIR      52  13  21 SE10G22   30.06S
SALIDA         FAIR      66  20  17 S10G18    30.02S
SUNLIGHT       FAIR      45  16  31 S12G30    30.10F
WILKERSON PASS FAIR      46  16  29 S15G28    30.17F
$$

COZ069>075-220700-
...SAN LUIS VALLEY/SANGRE DE CRISTO MOUNTAINS...

CITY           SKY/WX    TMP DP  RH WIND       PRES   REMARKS
ALAMOSA        FAIR      49  28  44 S8        30.00R
DEL NORTE      FAIR      58  27  30 SW10      30.03S
LA VETA PASS   FAIR      54  28  37 S29G54    30.21F
SAGUACHE       FAIR      45  27  49 N6        30.02S
$$

COZ035-036-038>040-220700-
...NORTHERN COLORADO FRONT RANGE...

CITY           SKY/WX    TMP DP  RH WIND       PRES   REMARKS
DENVER INTL AP FAIR      74  19  12 S17       29.70S
DMNS CITY PARK   N/A     72  22  15 S8G14     29.71F
AURORA         CLEAR     72  21  14 S20       29.74R
FRONT RANGE AP FAIR      73  21  14 S15G28    29.74R
ERIE MUNI ARPT FAIR      72  20  13 SW7G16    29.73S
BOULDER MUN AP FAIR      68  27  21 CALM      29.69R
CENTENNIAL     FAIR      70  20  15 S14       29.76S
BROOMFIELD     FAIR      72  28  20 S17G23    29.72S
FORT COLLINS   FAIR      59  29  31 CALM      29.67R
LONGMONT       FAIR      67  31  25 SW8       29.68S
$$

COZ041-046-047-076>085-087-088-220700-
...PIKES PEAK/PALMER DIVIDE AND SOUTHERN FOOTHILLS...

CITY           SKY/WX    TMP DP  RH WIND       PRES   REMARKS
COLO. SPRINGS  FAIR      63  24  22 S9        29.84S
A. F. ACADEMY  FAIR      62  22  22 S10       29.84S
SCHRIEVER AFB  FAIR      64  20  18 S13       29.84F
CHEYENNE MTN   FAIR      65  19  17 S12G17    29.82S
ELLICOTT         N/A    N/A N/A N/A S12       29.83S
FALCON         FAIR      59  20  21 SE5G18    29.89F
FORT CARSON    FAIR      64  22  20 S8        29.80S
LIMON          FAIR      61  23  23 SE6       29.78S
MONUMENT HILL  FAIR      54  23  30 S10       29.89S
CANON CITY     CLEAR     61  27  27 NW7       29.78S
WALSENBURG     FAIR      63  28  27 SW5       29.87S
TRINIDAD       FAIR      72  32  23 S20       29.86F
$$

COZ042>045-048>051-090-091-220700-
...NORTHEAST COLORADO...

CITY           SKY/WX    TMP DP  RH WIND       PRES   REMARKS
GREELEY ARPT   FAIR      60  34  37 NW7       29.65R
AKRON          FAIR      67  25  20 S12       29.69R
BURLINGTON     FAIR      65  37  35 S15       29.73S
WRAY           FAIR      68  34  28 S12       29.67R
YUMA           FAIR      54  34  47 S6        29.68S
STERLING       FAIR      54  34  47 SW5       29.62S
HOLYOKE        FAIR      61  36  39 S9        29.66R
FORT MORGAN    FAIR      57  27  31 S7        29.66S
$$

COZ086-089-092>099-220700-
...SOUTHEAST COLORADO...

CITY           SKY/WX    TMP DP  RH WIND       PRES   REMARKS
PUEBLO         FAIR      70  26  19 S12       29.74F
LA JUNTA       FAIR      77  28  16 S14       29.74S
LAMAR          FAIR      74  38  27 S18G25    29.71F
SPRINGFIELD      N/A     65  48  54 S12       29.83R
$$




USA.gov is the U.S. government's official web portal to all federal, state and local government web resources and services.